| time (UTC) | temp C | wind direction | speed KPH | gust KPH | rain 1hr cm | rain 24hr cm | rain mn cm | humidity % | barometer mb |
| 20260504050553 | 11 | 195 | 1.6 | 3.2 | 0.00 | 0.00 | 0.00 | 50 | 1002.0 |
| 20260504045553 | 11 | 283 | 0.0 | 0.0 | 0.00 | 0.00 | 0.00 | 54 | 1002.2 |
| 20260504045053 | 10 | 323 | 0.0 | 0.0 | 0.00 | 0.00 | 0.00 | 55 | 1002.2 |
| 20260504044552 | 10 | 263 | 0.0 | 1.6 | 0.00 | 0.00 | 0.00 | 56 | 1002.3 |
| 20260504044052 | 10 | 254 | 0.0 | 0.0 | 0.00 | 0.00 | 0.00 | 62 | 1002.5 |
| 20260504043553 | 10 | 298 | 0.0 | 0.0 | 0.00 | 0.00 | 0.00 | 60 | 1002.5 |
| 20260504043054 | 10 | 0 | 0.0 | 0.0 | 0.00 | 0.00 | 0.00 | 59 | 1002.6 |
| 20260504042553 | 10 | 0 | 0.0 | 0.0 | 0.00 | 0.00 | 0.00 | 58 | 1002.7 |
| 20260504042052 | 10 | 0 | 0.0 | 0.0 | 0.00 | 0.00 | 0.00 | 56 | 1002.7 |
| 20260504041552 | 10 | 281 | 0.0 | 0.0 | 0.00 | 0.00 | 0.00 | 58 | 1002.8 |
| 20260504041052 | 10 | 0 | 0.0 | 0.0 | 0.00 | 0.00 | 0.00 | 57 | 1003.0 |
| 20260504040553 | 11 | 0 | 0.0 | 0.0 | 0.00 | 0.00 | 0.00 | 56 | 1003.0 |
| 20260504040054 | 11 | 313 | 0.0 | 0.0 | 0.00 | 0.00 | 0.00 | 56 | 1003.2 |
| 20260504035552 | 11 | 274 | 0.0 | 0.0 | 0.00 | 0.00 | 0.00 | 56 | 1003.3 |
| 20260504035052 | 11 | 0 | 0.0 | 0.0 | 0.00 | 0.00 | 0.00 | 56 | 1003.4 |
| 20260504034553 | 11 | 0 | 0.0 | 0.0 | 0.00 | 0.00 | 0.00 | 55 | 1003.5 |
| 20260504034053 | 11 | 0 | 0.0 | 0.0 | 0.00 | 0.00 | 0.00 | 54 | 1003.6 |
| 20260504033553 | 11 | 0 | 0.0 | 0.0 | 0.00 | 0.00 | 0.00 | 54 | 1003.6 |
| 20260504033055 | 11 | 0 | 0.0 | 0.0 | 0.00 | 0.00 | 0.00 | 53 | 1003.7 |
| 20260504032553 | 12 | 224 | 0.0 | 0.0 | 0.00 | 0.00 | 0.00 | 53 | 1003.7 |
| 20260504032053 | 12 | 0 | 0.0 | 0.0 | 0.00 | 0.00 | 0.00 | 53 | 1003.8 |
| 20260504031554 | 12 | 0 | 0.0 | 0.0 | 0.00 | 0.00 | 0.00 | 52 | 1003.8 |
| 20260504031053 | 12 | 206 | 0.0 | 1.6 | 0.00 | 0.00 | 0.00 | 51 | 1003.8 |
| 20260504030553 | 12 | 316 | 0.0 | 1.6 | 0.00 | 0.00 | 0.00 | 50 | 1003.9 |
| 20260504030057 | 13 | 100 | 0.0 | 0.0 | 0.00 | 0.00 | 0.00 | 50 | 1004.0 |
| 20260504025553 | 13 | 254 | 0.0 | 1.6 | 0.00 | 0.00 | 0.00 | 49 | 1004.0 |
| 20260504025053 | 13 | 234 | 0.0 | 1.6 | 0.00 | 0.00 | 0.00 | 48 | 1004.0 |
| 20260504024553 | 13 | 354 | 0.0 | 1.6 | 0.00 | 0.00 | 0.00 | 48 | 1004.1 |
| 20260504024053 | 13 | 0 | 0.0 | 0.0 | 0.00 | 0.00 | 0.00 | 47 | 1004.1 |
| 20260504023553 | 14 | 294 | 0.0 | 1.6 | 0.00 | 0.00 | 0.00 | 46 | 1004.1 |
| 20260504023055 | 14 | 284 | 0.0 | 1.6 | 0.00 | 0.00 | 0.00 | 46 | 1004.1 |
| 20260504022553 | 15 | 0 | 0.0 | 0.0 | 0.00 | 0.00 | 0.00 | 47 | 1004.1 |
| 20260504022053 | 15 | 0 | 0.0 | 0.0 | 0.00 | 0.00 | 0.00 | 54 | 1004.1 |
| 20260504021553 | 16 | 10 | 0.0 | 0.0 | 0.00 | 0.00 | 0.00 | 53 | 1004.1 |
| 20260504021054 | 16 | 269 | 0.0 | 0.0 | 0.00 | 0.00 | 0.00 | 54 | 1004.1 |
| 20260504020553 | 16 | 292 | 0.0 | 0.0 | 0.00 | 0.00 | 0.00 | 52 | 1004.1 |
| 20260504020056 | 17 | 162 | 0.0 | 0.0 | 0.00 | 0.00 | 0.00 | 44 | 1004.0 |
| 20260504015553 | 17 | 191 | 0.0 | 1.6 | 0.00 | 0.00 | 0.00 | 44 | 1004.1 |
| 20260504015054 | 17 | 248 | 0.0 | 1.6 | 0.00 | 0.00 | 0.00 | 35 | 1004.1 |
| 20260504014554 | 18 | 233 | 1.6 | 3.2 | 0.00 | 0.00 | 0.00 | 34 | 1004.1 |
| 20260504014054 | 18 | 230 | 1.6 | 3.2 | 0.00 | 0.00 | 0.00 | 34 | 1004.2 |
| 20260504013553 | 18 | 227 | 1.6 | 3.2 | 0.00 | 0.00 | 0.00 | 34 | 1004.2 |
| 20260504013056 | 18 | 228 | 1.6 | 4.8 | 0.00 | 0.00 | 0.00 | 35 | 1004.3 |
| 20260504012553 | 18 | 234 | 1.6 | 3.2 | 0.00 | 0.00 | 0.00 | 33 | 1004.3 |
| 20260504012055 | 18 | 232 | 3.2 | 4.8 | 0.00 | 0.00 | 0.00 | 33 | 1004.3 |
| 20260504011554 | 18 | 225 | 1.6 | 3.2 | 0.00 | 0.00 | 0.00 | 33 | 1004.3 |
| 20260504011054 | 19 | 231 | 1.6 | 3.2 | 0.00 | 0.00 | 0.00 | 33 | 1004.3 |
| 20260504010553 | 19 | 244 | 3.2 | 4.8 | 0.00 | 0.00 | 0.00 | 32 | 1004.3 |
| 20260504010059 | 19 | 284 | 3.2 | 4.8 | 0.00 | 0.00 | 0.00 | 33 | 1004.3 |
| 20260504005554 | 19 | 248 | 3.2 | 4.8 | 0.00 | 0.00 | 0.00 | 32 | 1004.3 |
| 20260504005055 | 19 | 258 | 1.6 | 3.2 | 0.00 | 0.00 | 0.00 | 32 | 1004.4 |
| 20260504004555 | 19 | 258 | 4.8 | 9.7 | 0.00 | 0.00 | 0.00 | 31 | 1004.4 |
| 20260504004055 | 20 | 263 | 3.2 | 4.8 | 0.00 | 0.00 | 0.00 | 31 | 1004.4 |
| 20260504003553 | 20 | 250 | 3.2 | 6.4 | 0.00 | 0.00 | 0.00 | 31 | 1004.3 |
| 20260504003058 | 20 | 265 | 1.6 | 4.8 | 0.00 | 0.00 | 0.00 | 31 | 1004.3 |
| 20260504002554 | 20 | 242 | 1.6 | 3.2 | 0.00 | 0.00 | 0.00 | 33 | 1004.4 |
| 20260504002055 | 20 | 258 | 4.8 | 9.7 | 0.00 | 0.00 | 0.00 | 31 | 1004.4 |
| 20260504001556 | 20 | 310 | 3.2 | 6.4 | 0.00 | 0.00 | 0.00 | 32 | 1004.5 |
| 20260504001054 | 20 | 287 | 1.6 | 3.2 | 0.00 | 0.00 | 0.00 | 32 | 1004.5 |
| 20260504000554 | 20 | 319 | 3.2 | 4.8 | 0.00 | 0.00 | 0.00 | 31 | 1004.5 |
| 20260504000100 | 20 | 312 | 3.2 | 4.8 | 0.00 | 0.00 | 0.00 | 31 | 1004.5 |
| 20260503235554 | 20 | 298 | 4.8 | 6.4 | 0.00 | 0.00 | 0.00 | 30 | 1004.5 |
| 20260503235054 | 20 | 324 | 4.8 | 8.0 | 0.00 | 0.00 | 0.00 | 30 | 1004.5 |
| 20260503234555 | 20 | 257 | 6.4 | 8.0 | 0.00 | 0.00 | 0.00 | 29 | 1004.4 |
| 20260503234055 | 20 | 284 | 6.4 | 9.7 | 0.00 | 0.00 | 0.00 | 30 | 1004.5 |
| 20260503233554 | 20 | 267 | 8.0 | 12.9 | 0.00 | 0.00 | 0.00 | 29 | 1004.5 |
| 20260503233056 | 20 | 285 | 3.2 | 6.4 | 0.00 | 0.00 | 0.00 | 30 | 1004.7 |
| 20260503232554 | 20 | 302 | 6.4 | 9.7 | 0.00 | 0.00 | 0.00 | 30 | 1004.8 |
| 20260503232055 | 20 | 273 | 6.4 | 11.3 | 0.00 | 0.00 | 0.00 | 30 | 1004.9 |
| 20260503231554 | 20 | 320 | 6.4 | 8.0 | 0.00 | 0.00 | 0.00 | 31 | 1004.9 |
| 20260503231055 | 20 | 315 | 8.0 | 9.7 | 0.00 | 0.00 | 0.00 | 29 | 1004.9 |
| 20260503230554 | 20 | 301 | 4.8 | 8.0 | 0.00 | 0.00 | 0.00 | 30 | 1004.9 |
| 20260503230100 | 20 | 289 | 4.8 | 6.4 | 0.00 | 0.00 | 0.00 | 30 | 1004.9 |
| 20260503225554 | 20 | 277 | 4.8 | 8.0 | 0.00 | 0.00 | 0.00 | 30 | 1004.9 |
| 20260503225054 | 20 | 284 | 6.4 | 9.7 | 0.00 | 0.00 | 0.00 | 29 | 1005.0 |
| 20260503224555 | 20 | 288 | 6.4 | 9.7 | 0.00 | 0.00 | 0.00 | 29 | 1005.1 |
| 20260503224054 | 20 | 261 | 4.8 | 6.4 | 0.00 | 0.00 | 0.00 | 28 | 1005.0 |
| 20260503223554 | 20 | 274 | 8.0 | 11.3 | 0.00 | 0.00 | 0.00 | 28 | 1005.1 |
| 20260503223059 | 20 | 8 | 3.2 | 8.0 | 0.00 | 0.00 | 0.00 | 30 | 1005.1 |
| 20260503222553 | 20 | 308 | 8.0 | 12.9 | 0.00 | 0.00 | 0.00 | 30 | 1005.1 |
| 20260503222054 | 20 | 295 | 3.2 | 6.4 | 0.00 | 0.00 | 0.00 | 32 | 1005.1 |
| 20260503221555 | 20 | 293 | 4.8 | 6.4 | 0.00 | 0.00 | 0.00 | 32 | 1005.1 |
| 20260503221055 | 20 | 305 | 4.8 | 6.4 | 0.00 | 0.00 | 0.00 | 33 | 1005.2 |
| 20260503220554 | 20 | 289 | 6.4 | 9.7 | 0.00 | 0.00 | 0.00 | 31 | 1005.2 |
| 20260503215554 | 20 | 311 | 6.4 | 11.3 | 0.00 | 0.00 | 0.00 | 31 | 1005.2 |
| 20260503215055 | 20 | 320 | 8.0 | 12.9 | 0.00 | 0.00 | 0.00 | 31 | 1005.2 |
| 20260503214555 | 20 | 342 | 4.8 | 9.7 | 0.00 | 0.00 | 0.00 | 31 | 1005.2 |
| 20260503214056 | 20 | 323 | 6.4 | 8.0 | 0.00 | 0.00 | 0.00 | 32 | 1005.2 |
| 20260503213553 | 20 | 293 | 6.4 | 9.7 | 0.00 | 0.00 | 0.00 | 33 | 1005.2 |
| 20260503213059 | 20 | 308 | 6.4 | 9.7 | 0.00 | 0.00 | 0.00 | 33 | 1005.2 |
| 20260503212554 | 20 | 272 | 6.4 | 9.7 | 0.00 | 0.00 | 0.00 | 33 | 1005.3 |
| 20260503212056 | 20 | 317 | 6.4 | 11.3 | 0.00 | 0.00 | 0.00 | 34 | 1005.3 |
| 20260503211555 | 20 | 358 | 3.2 | 9.7 | 0.00 | 0.00 | 0.00 | 34 | 1005.3 |
| 20260503211056 | 20 | 287 | 6.4 | 8.0 | 0.00 | 0.00 | 0.00 | 35 | 1005.3 |
| 20260503210554 | 20 | 287 | 8.0 | 11.3 | 0.00 | 0.00 | 0.00 | 34 | 1005.3 |
| 20260503210058 | 20 | 288 | 4.8 | 6.4 | 0.00 | 0.00 | 0.00 | 35 | 1005.4 |
| 20260503205554 | 20 | 302 | 8.0 | 12.9 | 0.00 | 0.00 | 0.00 | 33 | 1005.3 |
| 20260503205056 | 20 | 293 | 6.4 | 11.3 | 0.00 | 0.00 | 0.00 | 33 | 1005.4 |
| 20260503204557 | 20 | 276 | 0.0 | 1.6 | 0.00 | 0.00 | 0.00 | 33 | 1005.5 |
| 20260503204058 | 20 | 5 | 4.8 | 11.3 | 0.00 | 0.00 | 0.00 | 31 | 1005.6 |
| 20260503203556 | 20 | 287 | 8.0 | 14.5 | 0.00 | 0.00 | 0.00 | 32 | 1005.6 |
| 20260503203102 | 20 | 314 | 4.8 | 9.7 | 0.00 | 0.00 | 0.00 | 32 | 1005.7 |
| 20260503202559 | 20 | 301 | 8.0 | 14.5 | 0.00 | 0.00 | 0.00 | 32 | 1005.8 |
| 20260503202100 | 20 | 307 | 6.4 | 8.0 | 0.00 | 0.00 | 0.00 | 32 | 1005.7 |
| 20260503201558 | 20 | 298 | 6.4 | 11.3 | 0.00 | 0.00 | 0.00 | 32 | 1005.8 |
| 20260503201058 | 20 | 347 | 1.6 | 4.8 | 0.00 | 0.00 | 0.00 | 31 | 1005.8 |
| 20260503200113 | 20 | 299 | 6.4 | 8.0 | 0.00 | 0.00 | 0.00 | 32 | 1005.9 |
| 20260503195558 | 20 | 315 | 6.4 | 8.0 | 0.00 | 0.00 | 0.00 | 30 | 1006.0 |
| 20260503195102 | 20 | 280 | 4.8 | 8.0 | 0.00 | 0.00 | 0.00 | 32 | 1006.1 |
| 20260503194600 | 20 | 287 | 8.0 | 11.3 | 0.00 | 0.00 | 0.00 | 32 | 1006.2 |
| 20260503194058 | 19 | 355 | 4.8 | 8.0 | 0.00 | 0.00 | 0.00 | 33 | 1006.1 |
| 20260503193558 | 20 | 291 | 8.0 | 11.3 | 0.00 | 0.00 | 0.00 | 33 | 1006.2 |
| 20260503193108 | 20 | 300 | 3.2 | 6.4 | 0.00 | 0.00 | 0.00 | 32 | 1006.1 |
| 20260503192600 | 20 | 13 | 3.2 | 8.0 | 0.00 | 0.00 | 0.00 | 34 | 1006.1 |
| 20260503192102 | 20 | 311 | 6.4 | 8.0 | 0.00 | 0.00 | 0.00 | 33 | 1006.1 |
| 20260503191601 | 20 | 354 | 4.8 | 8.0 | 0.00 | 0.00 | 0.00 | 33 | 1006.2 |
| 20260503191101 | 20 | 335 | 6.4 | 8.0 | 0.00 | 0.00 | 0.00 | 33 | 1006.1 |
| 20260503190109 | 19 | 291 | 1.6 | 4.8 | 0.00 | 0.00 | 0.00 | 38 | 1006.2 |
| 20260503185559 | 19 | 327 | 9.7 | 16.1 | 0.00 | 0.00 | 0.00 | 36 | 1006.2 |
| 20260503185102 | 19 | 326 | 3.2 | 6.4 | 0.00 | 0.00 | 0.00 | 38 | 1006.2 |
| 20260503184602 | 19 | 287 | 4.8 | 11.3 | 0.00 | 0.00 | 0.00 | 39 | 1006.3 |
| 20260503184102 | 19 | 281 | 6.4 | 8.0 | 0.00 | 0.00 | 0.00 | 40 | 1006.3 |
| 20260503183558 | 19 | 296 | 6.4 | 8.0 | 0.00 | 0.00 | 0.00 | 41 | 1006.3 |
| 20260503183102 | 19 | 303 | 8.0 | 12.9 | 0.00 | 0.00 | 0.00 | 40 | 1006.3 |
| 20260503182559 | 19 | 279 | 6.4 | 8.0 | 0.00 | 0.00 | 0.00 | 38 | 1006.3 |
| 20260503182102 | 19 | 313 | 8.0 | 12.9 | 0.00 | 0.00 | 0.00 | 39 | 1006.3 |
| 20260503181559 | 18 | 284 | 4.8 | 8.0 | 0.00 | 0.00 | 0.00 | 40 | 1006.3 |
| 20260503181102 | 19 | 259 | 9.7 | 12.9 | 0.00 | 0.00 | 0.00 | 40 | 1006.3 |
| 20260503180601 | 19 | 279 | 6.4 | 9.7 | 0.00 | 0.00 | 0.00 | 39 | 1006.4 |
| 20260503180104 | 19 | 320 | 3.2 | 6.4 | 0.00 | 0.00 | 0.00 | 39 | 1006.5 |
| 20260503175600 | 18 | 27 | 3.2 | 6.4 | 0.00 | 0.00 | 0.00 | 42 | 1006.5 |
| 20260503175100 | 18 | 348 | 3.2 | 8.0 | 0.00 | 0.00 | 0.00 | 42 | 1006.6 |
| 20260503174559 | 18 | 319 | 6.4 | 11.3 | 0.00 | 0.00 | 0.00 | 41 | 1006.5 |
| 20260503174100 | 18 | 294 | 8.0 | 12.9 | 0.00 | 0.00 | 0.00 | 42 | 1006.6 |
| 20260503173559 | 18 | 286 | 6.4 | 9.7 | 0.00 | 0.00 | 0.00 | 44 | 1006.6 |
| 20260503173106 | 18 | 315 | 4.8 | 6.4 | 0.00 | 0.00 | 0.00 | 42 | 1006.6 |
| 20260503172558 | 18 | 43 | 3.2 | 3.2 | 0.00 | 0.00 | 0.00 | 43 | 1006.6 |
| 20260503172104 | 18 | 348 | 3.2 | 6.4 | 0.00 | 0.00 | 0.00 | 42 | 1006.6 |
| 20260503171604 | 18 | 325 | 6.4 | 9.7 | 0.00 | 0.00 | 0.00 | 41 | 1006.8 |
| 20260503171100 | 18 | 304 | 6.4 | 11.3 | 0.00 | 0.00 | 0.00 | 42 | 1006.8 |
| 20260503170118 | 18 | 284 | 6.4 | 11.3 | 0.00 | 0.00 | 0.00 | 41 | 1006.9 |
| 20260503160107 | 17 | 329 | 4.8 | 9.7 | 0.00 | 0.00 | 0.00 | 43 | 1006.6 |
| 20260503150557 | 16 | 48 | 1.6 | 6.4 | 0.00 | 0.00 | 0.00 | 48 | 1006.3 |
| 20260503150106 | 16 | 333 | 3.2 | 6.4 | 0.00 | 0.00 | 0.00 | 48 | 1006.3 |
| 20260503140112 | 13 | 305 | 6.4 | 6.4 | 0.00 | 0.00 | 0.00 | 52 | 1006.1 |
| 20260503131101 | 12 | 295 | 3.2 | 6.4 | 0.00 | 0.00 | 0.00 | 53 | 1005.6 |
| 20260503130558 | 12 | 311 | 3.2 | 4.8 | 0.00 | 0.00 | 0.00 | 53 | 1005.6 |
| 20260503120104 | 10 | 224 | 0.0 | 1.6 | 0.00 | 0.00 | 0.00 | 64 | 1005.0 |
| 20260503110109 | 10 | 0 | 0.0 | 0.0 | 0.00 | 0.00 | 0.00 | 57 | 1004.7 |
| 20260503081556 | 15 | 192 | 4.8 | 6.4 | 0.00 | 0.00 | 0.00 | 46 | 1005.6 |
| 20260503081056 | 15 | 203 | 4.8 | 6.4 | 0.00 | 0.00 | 0.00 | 46 | 1005.7 |
| 20260503080556 | 15 | 230 | 3.2 | 6.4 | 0.00 | 0.00 | 0.00 | 46 | 1005.7 |
| 20260503072553 | 15 | 215 | 1.6 | 4.8 | 0.00 | 0.00 | 0.00 | 48 | 1006.3 |
| 20260503072053 | 15 | 214 | 3.2 | 4.8 | 0.00 | 0.00 | 0.00 | 47 | 1006.4 |
| 20260503071553 | 15 | 226 | 3.2 | 4.8 | 0.00 | 0.00 | 0.00 | 48 | 1006.5 |
| 20260503071053 | 14 | 219 | 3.2 | 4.8 | 0.00 | 0.00 | 0.00 | 49 | 1006.6 |
| 20260503070553 | 13 | 206 | 4.8 | 6.4 | 0.00 | 0.00 | 0.00 | 51 | 1006.7 |
| 20260503055053 | 13 | 218 | 1.6 | 3.2 | 0.00 | 0.00 | 0.00 | 50 | 1008.0 |
| 20260503054553 | 13 | 225 | 3.2 | 4.8 | 0.00 | 0.00 | 0.00 | 50 | 1008.0 |
| 20260503054053 | 13 | 203 | 3.2 | 4.8 | 0.00 | 0.00 | 0.00 | 50 | 1008.2 |
| 20260503053553 | 13 | 228 | 3.2 | 6.4 | 0.00 | 0.00 | 0.00 | 50 | 1008.4 |
| 20260503053054 | 13 | 215 | 3.2 | 4.8 | 0.00 | 0.00 | 0.00 | 50 | 1008.2 |
| 20260503052553 | 13 | 212 | 1.6 | 3.2 | 0.00 | 0.00 | 0.00 | 49 | 1008.1 |
| 20260503052053 | 13 | 217 | 1.6 | 4.8 | 0.00 | 0.00 | 0.00 | 49 | 1008.1 |
| 20260503051553 | 13 | 205 | 1.6 | 4.8 | 0.00 | 0.00 | 0.00 | 49 | 1008.2 |